Simultaneous Nadir Overpasses (SNOs) Predictions

Prediction of SNOs between GOES-16 and NOAA-19 Satellite Orbit:

Table of predicted SNOs for the next 14.0 days since TLE Epoch: 4/27/2019
Index Date Time (GOES-16) GOES-16 Lat,Lon NOAA-19 Lat,Lon Distance(km) Time Diff (sec)
1 04/27/2019 21:41:48 0.01, -75.19 0.54, -73.01 249.49 80
2 04/30/2019 10:02:52 -0.01, -75.22 0.64, -77.99 317.39 80
3 05/01/2019 09:48:36 -0.01, -75.22 -0.05, -75.16 7.72 80
4 05/02/2019 09:36:58 -0.01, -75.23 -0.68, -72.32 331.97 80
5 05/04/2019 21:58:16 0.01, -75.25 -0.46, -77.37 241.67 80
6 05/05/2019 21:49:19 0.00, -75.26 0.15, -74.52 83.36 80
7 05/06/2019 21:37:42 0.00, -75.27 0.83, -71.69 408.36 80
8 05/08/2019 10:10:21 0.00, -75.30 0.97, -79.51 480.40 80
9 05/09/2019 09:58:44 0.00, -75.31 0.33, -76.67 155.38 80
10 05/10/2019 09:44:27 -0.00, -75.32 -0.36, -73.84 169.72 80




NCC Satellite Simultaneous Nadir Overpasses (SNOs) Prediction Service
